Lid_Strength_Index
6 5 5 5 5 5 5 4 4 4 4 4 3 3 3 3 2 2 3 3 4 4 5 5 5 5 6 6 7 7 7 8 9 7 9 11 13 13 12 12 12 11 11
7 7 7 7 7 6 6 6 5 5 5 5 5 4 4 4 4 4 4 4 4 5 5 6 6 6 6 6 6 7 8 8 8 9 8 12 13 13 12 13 13 12 12
9 9 9 9 9 8 8 8 7 7 7 6 6 6 6 6 6 6 6 6 5 5 5 6 6 7 8 7 7 8 8 8 8 9 9 14 13 14 14 14 13 13 13
10 10 10 11 11 10 10 10 9 9 9 9 8 9 8 8 9 9 10 8 8 7 7 7 7 8 8 8 9 8 9 9 9 10 10 11 14 14 14 15 15 14 14
11 11 11 11 11 11 11 11 11 11 11 10 10 10 10 10 11 10 11 10 10 10 10 10 9 10 10 9 9 9 10 10 10 11 11 13 15 16 16 14 15 15 15
11 12 12 12 12 12 12 12 12 12 11 11 11 11 11 12 11 11 11 11 11 12 12 11 11 12 12 10 9 9 9 11 12 11 11 11 12 13 13 14 15 17 17
12 13 13 13 13 13 13 12 12 12 12 12 11 11 11 11 11 11 11 11 11 11 11 11 12 11 12 11 10 10 10 9 8 10 11 11 11 12 13 14 14 15 15
12 13 13 13 13 13 13 13 13 12 13 13 12 12 12 12 12 12 12 11 11 11 11 11 11 11 11 12 12 12 12 11 11 10 9 9 9 11 12 12 13 14 13
13 13 13 14 14 14 14 13 13 13 13 13 13 13 13 13 12 12 11 11 11 11 11 11 11 11 11 11 12 12 12 11 10 9 8 8 8 9 10 12 13 14 14
13 13 13 13 14 14 13 14 13 13 14 13 13 13 13 14 12 12 12 11 12 11 11 11 12 12 11 10 11 12 12 11 10 10 10 9 8 9 8 10 11 13 13
14 14 14 14 14 14 14 14 14 14 14 14 14 13 13 13 13 12 11 11 11 11 11 11 10 9 10 10 9 10 10 10 10 10 10 10 10 10 10 9 10 10 12
14 14 14 15 14 13 14 14 13 13 14 13 13 12 11 11 12 12 11 11 10 11 11 10 10 10 9 9 9 9 8 9 10 10 10 10 10 10 9 9 9 9 10
15 15 14 14 14 13 13 13 12 11 12 12 12 12 12 11 11 11 11 11 10 10 10 10 10 10 10 10 10 10 10 9 9 10 10 10 9 9 9 10 10 10 11
16 15 14 14 13 13 12 11 11 11 11 11 12 12 12 12 11 11 10 10 10 9 10 10 10 10 9 9 9 9 9 9 9 9 9 10 10 10 10 10 11 12 13
18 17 15 14 14 14 13 12 12 11 11 11 11 11 12 12 11 10 9 9 9 9 10 9 9 9 9 9 8 9 9 8 9 8 9 10 10 10 11 11 11 11 12
20 17 16 17 15 15 14 12 10 10 10 9 9 9 9 9 8 8 8 8 7 8 9 9 9 9 9 9 9 8 8 8 8 8 8 9 10 11 12 11 11 11 11
22 20 18 18 17 16 14 13 13 11 10 9 9 9 9 9 9 8 7 7 6 7 8 8 8 9 9 8 8 8 9 9 9 9 9 9 9 10 11 12 12 11 12
23 22 20 18 17 16 15 13 12 12 12 10 9 9 9 9 9 8 7 6 7 8 9 9 9 9 9 9 9 9 10 10 11 11 11 10 10 10 11 12 12 12 13
21 20 19 18 17 17 15 14 12 11 11 10 10 10 11 10 10 11 10 8 9 10 11 12 12 11 11 11 11 11 12 12 12 12 13 12 12 11 13 13 14 15 14
20 20 19 18 17 16 14 13 12 10 10 10 10 10 10 11 10 12 13 12 12 13 13 13 14 14 14 13 13 13 13 13 14 14 14 14 14 13 14 14 14 15 15
19 18 18 17 16 16 15 14 12 11 10 10 11 11 11 12 13 14 15 16 15 15 15 15 15 16 16 15 15 14 15 15 15 15 15 15 15 15 15 14 15 15 16
18 18 18 18 17 16 15 14 13 12 10 11 13 13 14 14 15 16 17 18 19 19 18 17 17 18 18 18 17 16 16 17 17 17 17 17 17 16 16 16 16 17 17
18 19 18 17 16 16 15 14 14 13 13 13 14 15 15 16 17 17 18 19 19 19 20 19 19 20 20 21 20 19 18 18 18 19 18 18 18 17 18 17 18 19 19
19 19 18 18 17 17 16 16 15 15 15 15 15 16 16 17 17 18 18 19 19 19 20 20 20 20 21 21 20 21 21 21 21 20 20 19 19 20 19 20 19 20 20
20 20 19 19 19 18 17 17 16 17 17 16 17 17 17 18 18 18 18 19 20 20 20 20 21 21 21 22 22 22 22 20 22 23 23 22 21 22 22 21 21 21 21
21 20 20 20 20 19 19 19 18 18 18 17 17 17 18 18 18 18 19 19 20 20 20 20 20 21 22 22 22 22 23 22 23 26 23 23 23 23 23 22 23 22 22